When you browse on this site, cookies collect data to enhance your experience and personalize the content and advertising you see.
Visit our Privacy Policy to learn more. By continuing to use the site, you agree to this use of cookies and data.
  • In Hungary
  • List of Countries
  • For 7 days
  • Water Temperature
  • Weather Map
  • News
  • Weather Widgets
  • user-avatar
    Login

    Hourly Weather Grodzisk Mazowiecki

    Today, 14 November, Thursday

    Time Temperature Precipitation Wind Pressure Humidity
    00:00 +8°C° 0.1 mm 4 mps 743 mmHg 86%
    01:00 +7°C° 0 mm 4 mps 744 mmHg 91%
    02:00 +6°C° 0.3 mm 4 mps 745 mmHg 89%
    03:00 +6°C° 0.3 mm 4 mps 745 mmHg 88%
    04:00 +5°C° 0.3 mm 3 mps 746 mmHg 86%
    05:00 +5°C° 0 mm 3 mps 746 mmHg 86%
    06:00 +5°C° 0 mm 3 mps 747 mmHg 86%
    07:00 +5°C° 0 mm 2 mps 749 mmHg 84%
    08:00 +6°C° 0 mm 2 mps 749 mmHg 82%
    09:00 +6°C° 0 mm 2 mps 750 mmHg 79%
    10:00 +6°C° 0 mm 2 mps 751 mmHg 76%
    11:00 +7°C° 0 mm 2 mps 751 mmHg 74%
    12:00 +8°C° 0 mm 1 mps 751 mmHg 71%
    13:00 +8°C° 0 mm 1 mps 751 mmHg 68%
    14:00 +8°C° 0 mm 1 mps 751 mmHg 71%
    15:00 +8°C° 0 mm 1 mps 752 mmHg 74%
    16:00 +6°C° 0 mm 2 mps 752 mmHg 76%
    17:00 +6°C° 0 mm 2 mps 752 mmHg 78%
    18:00 +6°C° 0 mm 2 mps 752 mmHg 80%
    19:00 +6°C° 0 mm 2 mps 752 mmHg 82%
    20:00 +5°C° 0 mm 3 mps 752 mmHg 84%
    21:00 +4°C° 0 mm 3 mps 752 mmHg 85%
    22:00 +4°C° 0 mm 3 mps 752 mmHg 86%
    23:00 +5°C° 0 mm 3 mps 752 mmHg 87%

    Tomorrow, 15 November, Friday

    Time Temperature Precipitation Wind Pressure Humidity
    00:00 +5°C° 0 mm 3 mps 752 mmHg 88%
    01:00 +5°C° 0 mm 3 mps 751 mmHg 89%
    02:00 +5°C° 0.1 mm 3 mps 751 mmHg 90%
    03:00 +6°C° 0.1 mm 4 mps 751 mmHg 92%
    04:00 +7°C° 0.1 mm 4 mps 751 mmHg 93%
    05:00 +7°C° 0.1 mm 4 mps 751 mmHg 94%
    06:00 +8°C° 0.1 mm 4 mps 751 mmHg 95%
    07:00 +8°C° 0.1 mm 4 mps 751 mmHg 96%
    08:00 +10°C° 0 mm 4 mps 751 mmHg 92%
    09:00 +10°C° 0 mm 4 mps 751 mmHg 87%
    10:00 +11°C° 0 mm 4 mps 751 mmHg 83%
    11:00 +10°C° 0 mm 5 mps 751 mmHg 81%
    12:00 +10°C° 0 mm 5 mps 750 mmHg 80%
    13:00 +10°C° 0 mm 5 mps 750 mmHg 78%
    14:00 +10°C° 0 mm 5 mps 750 mmHg 81%
    15:00 +10°C° 0 mm 4 mps 750 mmHg 83%
    16:00 +10°C° 0 mm 4 mps 750 mmHg 85%
    17:00 +10°C° 0 mm 4 mps 750 mmHg 87%
    18:00 +8°C° 0 mm 4 mps 750 mmHg 89%
    19:00 +8°C° 0 mm 4 mps 750 mmHg 92%
    20:00 +8°C° 0 mm 4 mps 750 mmHg 92%
    21:00 +8°C° 0 mm 4 mps 750 mmHg 93%
    22:00 +8°C° 0 mm 4 mps 750 mmHg 93%
    23:00 +8°C° 0 mm 4 mps 750 mmHg 93%

    Day after tomorrow, 16 November, Saturday

    Time Temperature Precipitation Wind Pressure Humidity
    00:00 +8°C° 0 mm 4 mps 750 mmHg 93%
    01:00 +8°C° 0 mm 4 mps 750 mmHg 92%
    02:00 +8°C° 0 mm 4 mps 750 mmHg 92%
    03:00 +8°C° 0 mm 4 mps 750 mmHg 92%
    04:00 +8°C° 0 mm 4 mps 750 mmHg 92%
    05:00 +8°C° 0 mm 4 mps 750 mmHg 92%
    06:00 +8°C° 0 mm 4 mps 750 mmHg 92%
    07:00 +8°C° 0 mm 4 mps 749 mmHg 91%
    08:00 +9°C° 0 mm 5 mps 749 mmHg 85%
    09:00 +12°C° 0 mm 5 mps 749 mmHg 78%
    10:00 +13°C° 0 mm 6 mps 749 mmHg 71%
    11:00 +14°C° 0 mm 6 mps 749 mmHg 67%
    12:00 +15°C° 0 mm 6 mps 749 mmHg 62%
    13:00 +16°C° 0 mm 6 mps 749 mmHg 58%
    14:00 +15°C° 0 mm 6 mps 749 mmHg 61%
    15:00 +15°C° 0 mm 5 mps 749 mmHg 65%
    16:00 +14°C° 0 mm 4 mps 749 mmHg 68%
    17:00 +13°C° 0 mm 4 mps 750 mmHg 69%
    18:00 +13°C° 0 mm 4 mps 751 mmHg 70%
    19:00 +12°C° 0 mm 4 mps 752 mmHg 71%
    20:00 +11°C° 0 mm 4 mps 753 mmHg 74%
    21:00 +10°C° 0 mm 3 mps 753 mmHg 78%
    22:00 +10°C° 0 mm 2 mps 754 mmHg 81%
    23:00 +10°C° 0 mm 1 mps 754 mmHg 82%

    17 November, Sunday

    Time Temperature Precipitation Wind Pressure Humidity
    00:00 +10°C° 0 mm 1 mps 755 mmHg 83%
    01:00 +8°C° 0 mm 0 mps 755 mmHg 85%
    02:00 +9°C° 0 mm 1 mps 755 mmHg 85%
    03:00 +9°C° 0 mm 1 mps 755 mmHg 86%
    04:00 +8°C° 0 mm 2 mps 755 mmHg 86%
    05:00 +8°C° 0 mm 2 mps 755 mmHg 87%
    06:00 +8°C° 0 mm 2 mps 755 mmHg 87%
    07:00 +8°C° 0 mm 3 mps 755 mmHg 88%
    08:00 +9°C° 0 mm 3 mps 755 mmHg 83%
    09:00 +11°C° 0 mm 4 mps 755 mmHg 78%
    10:00 +12°C° 0 mm 4 mps 754 mmHg 73%
    11:00 +13°C° 0 mm 4 mps 754 mmHg 71%
    12:00 +13°C° 0 mm 4 mps 754 mmHg 69%
    13:00 +14°C° 0 mm 4 mps 753 mmHg 66%
    14:00 +13°C° 0 mm 4 mps 753 mmHg 69%
    15:00 +13°C° 0 mm 4 mps 752 mmHg 72%
    16:00 +12°C° 0 mm 5 mps 752 mmHg 75%
    17:00 +10°C° 0 mm 5 mps 752 mmHg 77%
    18:00 +10°C° 0 mm 5 mps 752 mmHg 79%
    19:00 +10°C° 0 mm 5 mps 752 mmHg 81%
    20:00 +9°C° 0 mm 5 mps 751 mmHg 84%
    21:00 +9°C° 0 mm 5 mps 751 mmHg 87%
    22:00 +8°C° 0 mm 5 mps 751 mmHg 90%
    23:00 +8°C° 0 mm 5 mps 751 mmHg 91%

    18 November, Monday

    Time Temperature Precipitation Wind Pressure Humidity
    00:00 +8°C° 0 mm 5 mps 750 mmHg 91%
    01:00 +8°C° 0 mm 5 mps 750 mmHg 91%
    02:00 +8°C° 0 mm 5 mps 749 mmHg 92%
    03:00 +8°C° 0 mm 5 mps 749 mmHg 92%
    04:00 +7°C° 0 mm 5 mps 749 mmHg 92%
    05:00 +7°C° 0 mm 5 mps 749 mmHg 90%
    06:00 +7°C° 0 mm 5 mps 748 mmHg 89%
    07:00 +7°C° 0 mm 5 mps 748 mmHg 87%
    08:00 +8°C° 0 mm 5 mps 748 mmHg 82%
    09:00 +9°C° 0 mm 5 mps 748 mmHg 77%
    10:00 +10°C° 0 mm 6 mps 748 mmHg 73%
    11:00 +10°C° 0 mm 5 mps 748 mmHg 70%
    12:00 +12°C° 0 mm 5 mps 748 mmHg 67%
    13:00 +13°C° 0 mm 5 mps 747 mmHg 63%
    14:00 +12°C° 0 mm 5 mps 747 mmHg 66%
    15:00 +12°C° 0 mm 5 mps 747 mmHg 69%
    16:00 +10°C° 0 mm 5 mps 747 mmHg 72%
    17:00 +11°C° 0 mm 4 mps 748 mmHg 73%
    18:00 +11°C° 0 mm 4 mps 748 mmHg 75%
    19:00 +11°C° 0 mm 4 mps 748 mmHg 77%
    20:00 +10°C° 0 mm 4 mps 749 mmHg 77%
    21:00 +10°C° 0 mm 4 mps 750 mmHg 77%
    22:00 +8°C° 0 mm 4 mps 750 mmHg 78%
    23:00 +9°C° 0 mm 3 mps 751 mmHg 78%

    19 November, Tuesday

    Time Temperature Precipitation Wind Pressure Humidity
    00:00 +9°C° 0 mm 3 mps 751 mmHg 78%
    01:00 +8°C° 0 mm 3 mps 752 mmHg 78%
    02:00 +8°C° 0 mm 3 mps 752 mmHg 80%
    03:00 +8°C° 0 mm 3 mps 752 mmHg 82%
    04:00 +8°C° 0 mm 3 mps 752 mmHg 84%
    05:00 +7°C° 0 mm 3 mps 753 mmHg 82%
    06:00 +7°C° 0 mm 3 mps 753 mmHg 81%
    07:00 +7°C° 0 mm 3 mps 753 mmHg 80%
    08:00 +8°C° 0 mm 2 mps 754 mmHg 76%
    09:00 +9°C° 0 mm 2 mps 754 mmHg 72%
    10:00 +11°C° 0 mm 1 mps 754 mmHg 69%
    11:00 +11°C° 0 mm 1 mps 754 mmHg 67%
    12:00 +12°C° 0 mm 1 mps 754 mmHg 65%
    13:00 +12°C° 0 mm 1 mps 754 mmHg 63%
    14:00 +12°C° 0 mm 1 mps 754 mmHg 66%
    15:00 +11°C° 0 mm 1 mps 754 mmHg 69%
    16:00 +10°C° 0 mm 2 mps 754 mmHg 72%
    17:00 +11°C° 0 mm 1 mps 754 mmHg 74%
    18:00 +10°C° 0 mm 1 mps 754 mmHg 76%
    19:00 +10°C° 0 mm 1 mps 754 mmHg 79%
    20:00 +10°C° 0 mm 1 mps 754 mmHg 81%
    21:00 +10°C° 0 mm 1 mps 754 mmHg 83%
    22:00 +9°C° 0 mm 2 mps 754 mmHg 85%
    23:00 +8°C° 0 mm 2 mps 754 mmHg 86%
    Show more